SCP
0 0 0 0 0 0 0 0 0 0 0 0 0 0 0 0 1 1 1 1 2 2 2 2 1 1 1 1 1 1 1 1 1 0 0 0 0 0 0 0 1 1 0 0 0 0 0 0 0
0 0 0 0 0 0 0 0 0 0 0 0 0 0 0 1 1 2 2 2 2 2 2 1 1 1 1 1 1 1 1 1 1 1 0 0 0 0 0 0 0 0 0 0 0 0 0 0 0
0 0 0 0 0 0 0 0 0 0 0 0 0 0 1 1 1 2 2 2 2 2 2 2 1 1 1 1 1 1 1 1 1 1 0 0 0 0 0 0 0 1 1 1 1 1 0 1 1
0 0 0 0 0 0 0 0 0 0 0 0 0 0 0 1 1 1 1 1 2 2 2 2 1 1 1 1 1 1 1 1 1 1 1 1 0 0 0 0 1 1 1 1 1 1 1 1 1
0 0 0 0 0 0 0 0 0 0 0 0 0 0 0 0 0 0 0 1 2 2 2 2 1 1 1 1 1 1 1 1 1 1 1 1 1 1 0 0 1 1 1 1 1 1 1 1 1
0 0 0 0 0 0 0 0 0 0 0 0 0 0 0 0 0 0 0 1 1 2 2 2 1 1 1 1 1 1 1 1 1 1 1 1 1 1 1 0 0 1 1 1 1 1 1 1 1
0 0 0 0 0 0 0 0 0 0 0 0 0 0 0 0 0 0 0 1 1 2 2 2 1 1 1 1 1 1 0 0 1 1 1 1 1 1 1 1 0 1 1 1 1 1 1 1 1
0 0 0 0 0 0 0 0 0 0 0 0 0 0 0 0 0 0 0 1 1 1 1 1 1 1 1 1 0 0 0 0 0 1 1 1 1 1 1 1 1 0 1 1 1 1 1 1 1
0 0 0 0 0 0 0 0 0 0 0 0 0 0 0 0 0 0 1 1 1 1 1 1 1 1 1 1 0 0 0 0 0 0 0 0 0 0 0 0 0 1 1 1 1 1 1 1 1
0 0 0 0 0 0 0 0 0 0 0 0 0 1 1 0 0 0 1 1 1 1 1 1 1 1 1 0 0 0 0 0 0 0 0 0 0 0 0 0 0 0 1 1 1 1 1 0 0
0 0 0 0 0 0 0 0 0 0 0 0 1 1 1 0 0 0 0 1 0 1 1 1 1 1 1 0 0 0 0 0 0 0 0 0 0 0 0 0 1 1 1 1 2 1 0 0 0
0 0 0 0 0 0 0 0 0 0 0 0 1 1 1 0 0 0 0 0 0 0 1 1 1 1 1 0 0 0 0 0 0 0 0 0 0 0 0 0 1 1 2 2 2 1 0 0 0
0 0 0 0 0 0 0 0 0 1 0 0 1 1 1 0 0 0 0 0 0 0 0 1 1 1 1 0 0 0 0 0 0 0 0 0 0 0 0 0 1 2 3 3 2 1 0 0 0
0 0 0 0 0 0 0 0 0 0 0 0 1 1 1 0 0 0 0 0 0 0 0 1 1 1 1 0 0 0 0 0 0 0 0 0 0 0 0 0 0 1 2 3 3 1 0 0 0
0 0 0 0 0 0 0 0 0 0 0 0 1 1 1 0 0 0 0 0 0 0 0 1 1 1 1 0 0 0 0 0 0 0 0 0 0 0 0 0 0 0 1 3 2 1 0 0 0
0 0 0 0 0 0 0 0 0 0 0 0 1 1 1 1 1 1 0 0 0 0 0 1 1 1 1 0 0 0 0 0 0 0 0 0 0 0 0 0 0 0 1 2 1 0 0 0 0
0 0 0 0 0 0 0 0 0 0 0 0 1 1 1 1 1 1 0 0 0 0 1 1 1 1 1 0 0 1 0 0 0 0 0 0 0 0 0 0 0 0 0 0 0 0 0 0 0
0 0 0 0 0 0 0 0 0 0 0 0 1 1 1 1 1 1 0 0 0 0 1 1 1 1 1 0 0 0 0 0 0 0 0 0 0 0 0 0 0 0 0 0 0 0 0 0 0
0 0 0 0 0 0 0 0 0 0 0 0 0 1 1 1 1 1 0 0 0 0 1 1 1 1 0 0 0 0 0 0 0 0 0 0 0 0 0 0 0 0 0 0 0 0 0 0 0
0 0 0 0 0 0 0 0 0 0 0 0 0 1 1 1 1 1 0 0 0 0 1 1 1 1 0 0 0 0 0 0 0 0 0 0 0 0 0 0 0 0 0 0 0 0 0 0 0
0 0 0 0 0 0 0 0 0 0 0 0 0 0 1 1 1 1 0 0 0 1 1 1 1 1 0 0 0 0 0 0 0 0 0 0 0 0 0 0 0 0 0 0 0 0 0 0 0
0 0 0 0 0 0 0 0 0 0 0 0 0 0 1 1 1 0 0 0 0 0 0 1 1 0 0 0 0 0 0 0 0 0 0 0 0 0 0 0 0 0 0 0 0 0 0 0 0
0 0 0 0 0 0 0 0 0 0 0 0 0 0 0 1 1 0 0 0 0 0 0 0 0 0 0 0 0 0 0 0 0 0 0 0 0 0 0 0 0 0 0 0 0 0 0 0 0
0 0 0 0 0 0 0 0 0 0 0 0 0 0 0 1 0 0 0 0 0 0 0 0 0 0 0 0 0 0 0 0 0 0 0 0 0 0 0 0 0 0 0 0 0 0 0 0 0
0 0 0 0 0 0 0 0 0 0 0 0 0 0 1 1 0 0 0 0 0 0 0 0 0 0 0 0 0 0 0 0 0 0 0 0 0 0 0 0 0 0 0 0 0 0 0 0 0
0 0 0 0 0 0 0 0 0 0 0 0 0 0 1 1 0 0 0 0 0 0 0 0 0 0 0 0 0 0 0 0 0 0 0 0 0 0 0 0 0 0 0 0 0 0 0 0 0
0 0 0 0 0 0 0 0 0 0 0 0 0 0 0 0 0 0 0 0 0 0 0 0 0 0 0 0 0 0 0 0 0 0 0 0 0 0 0 0 0 0 0 0 0 0 0 0 0
0 0 0 0 0 0 0 0 0 0 0 0 0 0 0 0 0 0 0 0 0 0 0 0 0 0 0 0 0 0 0 0 0 0 1 0 0 0 0 0 0 0 0 0 0 0 0 0 0
0 0 0 0 0 0 0 0 0 0 0 0 0 0 0 0 0 0 0 0 0 0 0 0 0 0 0 0 0 0 0 0 0 0 0 0 0 0 0 0 0 0 0 0 0 0 0 0 0
0 0 0 0 0 0 0 0 0 0 0 0 0 0 0 0 0 0 0 0 0 0 0 0 0 0 0 0 0 0 0 0 0 0 0 0 0 0 0 0 0 0 0 0 0 0 0 0 0
Wind_Speed
13 9 5 2 3 3 4 2 1 3 4 5 5 4 5 6 5 5 3 5 5 5 5 5 6 6 6 7 7 7 7 7 7 7 8 8 8 8 9 9 9 9 9 9 9 9 10 10 10
9 7 3 3 4 4 3 2 3 5 5 3 3 3 3 6 7 6 3 3 4 5 5 5 6 6 6 6 6 7 7 7 7 7 7 7 7 8 8 8 9 9 9 9 9 9 9 9 9
8 6 3 3 3 4 1 3 6 6 5 2 3 4 5 5 5 4 3 2 4 5 5 6 7 7 6 6 6 6 6 7 7 7 7 7 7 7 8 8 8 8 8 8 8 8 9 8 8
4 3 3 3 5 2 2 4 5 4 4 3 2 4 5 5 4 4 4 3 4 5 5 7 6 7 6 6 6 6 6 6 6 6 6 6 6 6 7 7 7 7 7 7 8 8 8 8 8
3 3 4 5 6 1 2 3 1 2 2 2 1 3 5 4 6 5 3 2 4 5 5 6 6 6 6 5 5 5 5 6 5 5 6 6 6 6 6 6 6 6 6 6 7 7 7 7 7
3 3 4 6 4 2 2 2 1 1 2 3 1 1 5 4 5 3 2 2 4 5 5 5 5 5 5 5 5 5 5 5 5 4 5 5 5 5 5 5 5 5 5 5 6 6 6 6 6
3 3 5 5 2 2 2 1 1 1 1 2 2 1 5 4 3 2 2 2 3 4 4 4 4 4 4 4 5 5 4 4 4 4 4 5 5 5 5 5 5 5 4 5 5 5 5 5 5
3 3 4 4 3 1 2 1 2 4 2 3 3 1 3 4 3 1 2 2 3 3 4 4 3 3 3 3 5 5 5 4 4 4 4 4 4 4 4 4 4 4 4 4 4 4 4 4 4
3 3 3 3 2 2 2 1 1 2 2 2 2 4 5 7 5 2 1 2 2 2 3 3 3 2 2 2 3 4 4 4 3 3 2 1 1 2 2 3 4 3 3 3 3 3 3 3 3
1 2 2 4 5 3 2 2 1 1 1 1 2 4 5 4 4 3 2 2 2 2 2 3 2 2 2 2 2 1 2 2 1 1 1 0 1 2 2 3 3 3 2 2 2 2 2 2 1
2 1 2 4 5 3 1 1 2 1 2 1 1 3 5 4 3 3 3 2 2 2 2 2 2 2 1 1 1 1 1 1 1 1 0 1 1 1 1 1 1 1 1 1 1 1 1 1 1
1 3 3 3 4 2 1 1 2 2 2 2 2 3 4 4 3 3 3 3 2 2 2 2 2 2 1 1 0 1 1 1 1 1 0 1 1 0 0 0 0 1 0 1 1 0 0 1 1
1 1 2 2 2 1 1 2 2 3 2 1 1 3 3 3 3 2 2 2 2 2 2 2 2 1 1 1 1 0 1 1 1 1 0 1 0 0 0 0 0 0 1 1 1 1 1 1 1
3 2 1 0 0 0 1 3 2 3 2 1 2 2 2 3 3 2 2 3 3 3 2 2 2 2 1 1 1 1 1 1 1 1 0 0 0 0 0 0 0 0 0 0 1 1 1 1 1
2 2 1 1 1 1 2 4 4 4 2 2 2 3 3 3 3 3 3 3 3 2 3 3 2 2 1 1 1 1 1 1 1 1 1 0 0 0 1 1 0 0 1 0 0 1 1 2 2
3 2 2 2 1 1 1 4 2 3 3 3 3 3 3 3 3 2 2 2 2 2 3 3 2 2 2 1 1 1 1 1 1 1 1 1 1 1 1 1 1 0 1 1 1 1 1 2 2
3 2 2 1 1 1 2 4 2 2 3 4 3 3 3 3 3 2 2 2 2 3 3 3 3 3 2 1 1 1 0 1 1 1 0 1 1 1 1 1 1 1 1 1 1 1 1 1 2
1 2 2 1 0 0 3 6 5 3 4 4 3 3 3 3 3 2 2 2 3 3 3 2 3 2 2 1 0 0 0 0 0 1 1 1 1 1 1 1 1 1 1 1 1 1 1 1 1
3 1 2 2 1 1 4 7 7 4 4 4 4 3 3 3 2 3 3 3 3 3 3 3 3 2 2 1 1 1 1 1 1 0 1 1 1 1 1 1 1 1 1 2 1 1 1 1 1
1 1 2 2 1 2 4 8 7 5 5 4 3 3 2 1 2 2 3 3 3 3 3 3 3 3 2 2 2 1 1 1 1 1 0 1 1 1 1 1 1 1 1 2 2 1 1 2 1
1 1 2 3 4 4 4 6 4 3 4 3 3 3 3 3 3 3 3 3 3 3 3 3 3 3 3 2 1 1 0 0 1 1 1 1 1 0 1 1 1 1 1 1 2 2 2 2 2
1 3 2 2 3 3 1 4 4 3 3 4 4 3 3 2 2 2 3 3 3 3 3 3 3 3 3 3 3 3 2 2 2 1 1 1 1 0 1 1 1 1 1 1 2 1 2 2 2
1 2 2 3 2 3 3 3 6 2 3 4 4 4 3 2 2 2 2 3 2 3 3 3 3 3 3 3 4 3 2 2 1 1 1 1 1 0 0 0 1 1 1 1 1 2 2 2 2
1 2 3 2 1 3 3 3 5 2 2 2 2 2 2 2 1 1 1 2 2 2 3 3 3 4 4 4 4 4 4 3 2 2 1 1 0 1 1 1 1 1 1 1 2 2 2 2 2
1 1 2 2 1 4 1 2 7 2 1 2 2 2 2 2 1 1 1 1 2 2 3 3 3 3 4 4 4 4 4 3 3 3 2 1 1 1 1 1 1 1 1 1 1 1 2 2 2
2 0 1 2 2 3 1 5 6 1 2 2 1 1 1 1 1 1 2 2 2 3 3 3 3 3 3 3 3 3 3 2 2 2 2 2 2 2 1 2 1 1 1 1 1 1 2 1 2
1 0 0 0 1 3 5 4 3 1 1 1 2 2 2 2 2 2 2 2 2 2 3 3 4 3 3 4 3 3 3 2 2 2 1 1 1 1 1 1 1 2 1 1 1 1 2 2 2
2 1 0 1 1 3 5 4 4 2 2 2 3 3 3 3 2 2 2 2 2 3 3 3 3 4 3 3 3 2 2 2 2 2 2 2 1 1 1 1 2 1 1 1 1 2 2 2 2
2 2 2 1 2 2 4 6 1 3 3 3 3 2 2 2 2 2 2 2 2 2 3 3 3 3 3 3 3 3 3 2 2 2 2 2 2 2 2 2 2 2 2 2 2 2 2 2 3
2 2 3 3 3 3 3 8 2 0 1 2 2 3 2 2 2 2 2 2 2 3 3 3 4 4 4 3 3 3 3 3 3 3 2 2 2 2 2 2 2 2 2 2 2 3 2 3 3
Wind_Direction
306 281 259 261 248 236 242 229 99 80 67 45 27 14 35 35 30 90 98 71 81 96 102 99 84 87 95 95 91 87 84 81 78 75 73 73 75 73 69 64 61 61 60 60 60 58 58 57 56
296 289 268 241 245 241 228 177 111 68 72 69 41 15 59 75 67 91 84 64 91 96 95 93 81 82 92 98 95 90 84 81 79 76 73 72 73 73 70 65 62 61 60 61 62 60 57 54 53
277 267 262 245 244 259 276 70 84 82 83 77 67 32 35 62 77 82 85 91 95 96 95 94 86 84 87 93 96 93 87 82 78 76 73 71 69 70 69 66 63 60 60 61 60 59 56 54 53
275 239 238 248 250 270 358 54 87 113 103 68 81 94 77 49 60 73 93 104 99 97 94 98 89 87 86 90 95 95 92 86 81 78 73 69 67 65 65 65 63 59 60 61 60 58 56 55 52
240 250 232 237 244 245 32 26 62 119 122 95 43 98 97 75 73 81 86 100 101 98 95 104 93 89 85 87 92 95 93 87 80 78 76 68 64 61 60 59 57 58 61 64 62 59 56 53 49
250 245 241 237 221 163 98 8 328 72 90 81 43 77 100 98 85 87 94 99 101 103 105 109 97 96 88 86 88 87 87 84 81 78 72 67 63 58 53 51 50 55 62 64 64 61 58 50 43
269 262 260 264 245 171 103 40 330 3 63 49 5 74 114 99 88 94 103 96 99 106 109 113 119 108 94 90 93 86 77 75 79 79 72 63 57 56 51 46 47 51 54 56 58 57 54 46 37
299 278 260 262 258 109 91 59 15 6 29 37 7 12 98 110 99 90 98 94 95 107 113 117 122 118 110 98 95 95 88 77 75 73 73 66 57 54 49 43 36 40 42 47 49 50 45 34 24
286 259 267 303 328 82 96 51 50 23 53 69 58 47 70 111 122 123 106 100 100 110 111 113 114 116 118 119 108 106 105 97 90 81 82 78 82 72 53 50 37 29 27 39 43 39 36 22 9
302 265 312 6 9 47 70 9 352 191 203 188 117 97 105 122 140 159 165 156 139 142 130 118 123 120 122 129 128 138 130 122 104 92 75 32 58 60 54 48 36 20 9 14 19 8 5 1 338
353 1 43 27 18 22 32 356 347 259 262 259 170 148 142 150 174 186 192 182 171 159 129 122 126 125 113 119 151 156 139 131 118 105 34 52 69 74 59 57 44 352 320 313 343 334 321 334 334
48 20 25 34 15 5 350 336 325 285 281 12 59 129 147 168 185 198 204 200 181 167 158 132 121 132 142 134 175 167 140 138 128 133 89 65 75 85 106 67 334 320 317 300 278 249 305 320 324
123 90 56 59 45 20 1 298 290 286 283 349 87 118 169 180 195 209 209 201 186 178 165 143 138 137 131 152 223 184 156 146 136 134 92 76 102 190 177 85 306 309 345 311 292 295 285 283 287
76 91 90 71 168 54 315 273 268 263 240 194 172 176 195 185 189 203 206 197 199 184 159 148 160 156 151 184 226 218 182 168 152 155 154 67 236 217 224 207 251 290 290 302 292 283 280 276 271
146 154 187 206 224 205 293 276 234 238 226 213 219 205 196 182 179 200 206 201 195 177 162 167 182 171 183 206 227 244 196 188 182 177 183 229 271 253 275 244 222 263 256 231 263 298 295 282 278
215 220 209 153 198 181 231 272 228 176 193 210 228 222 199 186 189 201 192 193 182 169 173 171 174 177 197 212 227 232 203 205 198 185 201 230 256 253 267 245 227 249 273 215 201 222 303 299 286
205 240 239 163 169 208 217 260 258 181 205 220 222 221 203 192 192 185 171 173 178 174 173 173 168 179 194 219 215 197 196 223 210 189 226 258 262 255 254 252 233 203 277 245 226 241 231 288 310
247 265 295 313 107 236 242 256 265 235 223 230 227 226 216 205 195 170 160 155 160 160 159 173 171 174 177 198 182 183 194 255 228 208 229 251 266 276 260 249 243 191 229 241 208 236 265 257 287
320 308 303 322 29 301 255 266 272 242 235 239 234 226 224 210 183 152 149 145 152 158 164 176 175 174 162 173 177 194 240 263 279 255 203 227 264 273 245 247 237 206 220 219 186 207 252 266 276
340 306 301 307 5 276 279 278 267 243 228 220 225 234 234 204 158 140 136 151 165 172 179 179 180 181 183 198 198 188 194 224 228 277 307 239 225 249 256 249 247 220 216 214 184 203 249 263 269
359 313 325 326 317 251 275 287 236 221 212 197 204 219 227 197 187 170 159 165 172 185 186 188 192 194 195 194 179 163 165 249 246 247 261 272 231 237 278 261 246 240 226 220 220 206 216 251 274
309 30 352 316 320 297 289 295 264 212 209 204 210 213 218 198 180 178 176 180 186 194 185 193 200 199 196 189 186 189 198 224 232 225 230 267 256 231 260 256 242 240 237 228 244 249 239 230 248
28 353 301 278 280 301 258 250 276 211 228 218 204 204 194 173 169 184 185 178 180 180 182 193 201 205 199 195 198 206 214 225 215 195 212 236 256 248 265 251 240 237 233 230 236 248 245 240 241
285 272 255 252 283 281 236 221 272 223 214 180 162 160 151 131 122 148 153 139 162 169 174 189 206 214 205 197 198 201 205 207 206 219 221 221 229 278 298 242 226 236 231 234 240 237 237 238 242
266 337 356 341 293 255 179 227 252 253 93 117 141 157 145 130 145 179 175 177 203 203 201 199 205 218 212 201 198 199 206 206 210 209 213 212 222 246 262 254 229 234 235 238 241 242 244 239 237
244 295 143 261 277 299 257 240 254 160 96 90 101 119 128 174 204 222 216 207 214 211 208 211 216 218 207 199 197 197 202 208 214 215 213 209 217 217 234 244 243 242 235 236 224 232 246 246 246
294 173 23 241 318 290 261 252 274 167 189 189 191 202 223 227 223 222 221 214 219 218 215 214 220 216 200 197 195 195 196 202 215 224 219 209 215 212 215 235 244 252 245 236 227 233 243 242 246
304 338 136 159 266 282 281 262 246 219 228 220 211 215 231 226 224 222 215 212 220 220 219 214 215 213 206 196 191 191 191 198 214 219 223 223 223 217 212 231 241 250 253 248 245 257 256 253 255
182 206 219 217 220 227 279 271 255 175 189 209 230 228 231 233 237 235 234 221 215 218 216 219 218 211 205 199 193 189 194 194 203 216 226 222 222 221 219 227 239 250 260 259 252 255 254 255 263
250 222 187 189 241 227 256 269 286 154 167 195 247 256 246 241 245 241 237 229 222 226 225 216 209 207 206 195 190 195 195 192 199 215 226 221 222 224 226 223 231 247 257 260 257 255 251 252 263